Tracking 30970 objects as of 3-Jul-2025
HD Live streaming from Space Station
objects crossing your sky now

DELTA 1 DEB

Track DELTA 1 DEB now!
10-day predictions


NORAD ID: 42640
Int'l Code: 1975-052LZ
Perigee: 936.8 km
Apogee: 1,259.7 km
Inclination: 99.8 °
Period: 107.1 minutes
Semi major axis: 7469 km
RCS: Unknown
Launch date: June 12, 1975
Source: United States (US)
Launch site: AIR FORCE WESTERN TEST RANGE (AFWTR)

Note: This is SATELLITE DEBRIS
Your satellite tracking list
USA 340
Track 1 satellite(s)




NASA's NSSDC Master Catalog

Two Line Element Set (TLE):
1 42640U 75052LZ  25183.27097030  .00000465  00000-0  75305-3 0  9990
2 42640  99.7888 355.8438 0216176 207.4579 329.7604 13.44888893569007
Source of the keplerian elements: AFSPC